Flag for U.S.A. Weather past 2 weeks in Richmond, Virginia, U.S.A.

Now
71 °F

Clear.


Feels Like: 74 °F
Forecast: 63 / 86 °F
Wind: 7 mph from Southeast

Location: Richmond International Airport

Current Time: Aug 28, 2015 at 9:15:07 PM

Latest Report: Aug 28, 2015 at 8:54 PM


Visibility: 10 mi

Pressure: 30.19 "Hg

Humidity: 71%

Dew point: 61 °F

Location of RichmondLocation

Historic Weather in Richmond — Graph

°F

Richmond temperature yesterday

Maximum temperature yesterday: 83 °F (at 2:54 PM)
Minimum temperature yesterday: 64 °F (at 6:54 AM)
Average temperature yesterday: 72 °F

Past Weeks' High & Low Weather Summary

 TemperatureHumidityPressure
High91 °F (Aug 17, 1:54 PM)94% (Aug 19, 5:51 PM)30.23 "Hg (Aug 19, 5:51 PM)
Low61 °F (Aug 28, 6:54 AM)37% (Aug 14, 2:54 PM)29.85 "Hg (Aug 24, 6:54 PM)
Average76 °F69%30.05 "Hg
* Reported Aug 13 7:54 PM — Aug 28 7:54 PM, Richmond, Weather by CustomWeather, © 2015

Note: Actual official high and low records may vary slightly from our data, if they occured in-between our weather recording intervals... More about our weather records

Advertising

Richmond weather history for previous 24 hours

 ConditionsComfort  
Time TempWeatherWind HumidityBarometerVisibility
7:54 PM
Fri, Aug 28
75 °FSunny.6 mph62%30.15 "Hg10 mi
6:54 PM80 °FPassing clouds.6 mph51%30.15 "Hg10 mi
5:54 PM82 °FScattered clouds.6 mph46%30.15 "Hg10 mi
4:54 PM81 °FScattered clouds.7 mph47%30.16 "Hg10 mi
3:54 PM84 °FScattered clouds.6 mph43%30.16 "Hg10 mi
2:54 PM86 °FScattered clouds.12 mph42%30.18 "Hg10 mi
1:54 PM85 °FScattered clouds.6 mph42%30.20 "Hg10 mi
12:54 PM82 °FScattered clouds.3 mph43%30.21 "Hg10 mi
11:54 AM81 °FScattered clouds.3 mph44%30.23 "Hg10 mi
10:54 AM79 °FScattered clouds.No wind50%30.23 "Hg10 mi
9:54 AM76 °FPassing clouds.6 mph60%30.21 "Hg10 mi
8:54 AM72 °FPassing clouds.5 mph68%30.21 "Hg10 mi
7:54 AM66 °FPassing clouds.3 mph81%30.19 "Hg10 mi
6:54 AM61 °FPassing clouds.5 mph90%30.17 "Hg9 mi
5:54 AM62 °FPassing clouds.5 mph86%30.16 "Hg10 mi
4:54 AM63 °FClear.No wind87%30.15 "Hg10 mi
3:54 AM63 °FClear.No wind87%30.15 "Hg10 mi
2:54 AM63 °FClear.3 mph87%30.15 "Hg10 mi
1:54 AM64 °FPassing clouds.No wind87%30.16 "Hg10 mi
12:54 AM65 °FPassing clouds.No wind87%30.16 "Hg10 mi
11:54 PM
Thu, Aug 27
67 °FPassing clouds.5 mph85%30.15 "Hg10 mi
10:54 PM69 °FPassing clouds.No wind76%30.15 "Hg10 mi
9:54 PM69 °FPassing clouds.No wind73%30.14 "Hg10 mi
Weather by CustomWeather, © 2015

See weather overviewHow to use our weather pages